Location: *
(51.8167°N, 12.5000°E)
Time: 04:04:35
(UTC+00:00)

Meteor 2-9 Rocket - Pass Details

Date: 16 September 2019
Orbit: 791 x 896 km, 81.3° (Epoch: 23 October)

Event Time Altitude Azimuth Distance (km) Brightness Sun altitude
Rises 17:51:39 0° 173° (S) 3,481 7.2 -5.2°
Reaches altitude 10° 17:54:10 10° 169° (SSE) 2,536 6.5 -5.6°
Maximum altitude 17:59:43 51° 95° (E) 1,086 4.4 -6.4°
Drops below altitude 10° 18:05:11 10° 21° (NNE) 2,492 6.6 -7.2°
Sets 18:07:38 0° 17° (NNE) 3,415 7.3 -7.6°
